[[{"header":{"parameterUnit":"m.s-1","parameterCategory":1,"la1":30.2991,"la2":30.254,"lo1":-89.0895,"lo2":-89.0444,"dy":0.0017,"dx":0.0017,"nx":28,"ny":28,"refTime":"2025-07-18T03:00:00:Z","depth":0,"parameterNumber":2,"parameterNumberName":"U-component_of_WINDS"},"data":[0,0,0,0,0,0,0,0,0,0,0,0,0,0,0,0,0,0,0,0,0,0,0,0,0,0,0,0,0,0,0,0,0,0,0,0,0,0,0,0,0,0,0,0,0,0,0,0,0,0,0,0,0,0,0,0,0,0,1.8223,1.8222,0,1.8201,1.82,1.82,1.8123,1.8121,1.812,1.8118,1.8095,1.8096,1.8097,0,0,0,0,0,0,0,0,0,0,0,0,0,1.8198,1.8199,1.8223,1.8222,1.8222,1.8201,1.82,1.82,1.8123,1.8121,1.8119,1.8117,1.8095,1.8096,1.8098,0,0,0,0,0,0,0,0,0,0,0,0,0,1.8196,1.8199,1.8223,1.8181,1.8177,1.8201,1.82,1.82,1.8124,1.8121,1.8119,1.8116,1.8095,1.8096,1.8098,1.8159,0,0,1.8102,1.8103,0,0,0,0,0,0,0,0,1.8196,1.8197,1.8188,1.8184,1.818,1.8162,1.8183,1.8186,1.8124,1.8144,1.8118,1.8115,1.812,1.8119,1.8121,1.8158,1.8157,1.8103,1.8103,1.8104,1.8105,0,0,0,0,0,0,0,1.8196,1.8197,1.8214,1.8188,1.8183,1.8164,1.816,1.8183,1.8147,1.8142,1.8137,1.8135,1.8117,1.8119,1.8119,1.8157,1.8102,1.8104,1.8105,1.8105,1.8241,1.8244,0,0,0,0,0,0,1.8202,1.8198,1.8215,1.8213,1.8182,1.8166,1.8163,1.817,1.8146,1.814,1.8137,1.8132,1.8118,1.8118,1.8118,1.8187,1.8104,1.8106,1.8106,1.8238,1.8242,1.8245,0,0,0,0,0,0,1.8202,1.8204,1.8215,1.8204,1.8204,1.8169,1.8179,1.8171,1.8173,1.8143,1.8136,1.8146,1.8116,1.8116,1.8149,1.8185,1.8106,1.8108,1.8235,1.8239,1.8243,1.8325,0,0,0,0,0,0,1.8202,1.8205,1.8228,1.8205,1.8205,1.8247,1.8181,1.8173,1.8176,1.8168,1.8149,1.8144,1.8114,1.8147,1.8151,1.8185,1.8109,1.8232,1.8237,1.8242,1.8319,1.8331,1.8342,0,0,0,0,0,1.8201,1.8253,1.823,1.8232,1.8233,1.8249,1.8249,1.8214,1.8179,1.8202,1.8182,1.8144,1.8181,1.8151,1.8154,1.819,1.8229,1.8236,1.8241,1.8314,1.8329,1.8342,0,0,0,0,0,0,1.8281,1.8249,1.8223,1.8269,1.8262,1.8236,1.8264,1.8232,1.8235,1.8227,1.8184,1.818,1.8218,1.8208,1.8175,1.8247,1.8199,1.8206,1.8253,1.8267,1.8278,1.8279,1.811,0,0,0,0,0,1.8305,1.832,1.8291,1.8335,1.8332,1.8299,1.8305,1.8278,1.827,1.8266,1.8249,1.8242,1.8251,1.8259,1.8266,1.8318,1.8311,1.8344,1.8355,1.8365,1.8371,1.8395,1.8409,1.8264,1.8264,1.8264,0,0,1.8352,1.8337,1.8349,1.835,1.8342,1.8359,1.8297,1.8318,1.833,1.827,1.8299,1.8286,1.8275,1.8317,1.8334,1.8309,1.841,1.8373,1.8381,1.8381,1.8403,1.8416,1.8429,1.8269,1.8268,1.8267,0,0,1.8447,1.8438,1.8472,1.8465,1.8452,1.843,1.8438,1.8417,1.8405,1.8434,1.8388,1.8402,1.842,1.8413,1.8413,1.8504,1.8468,1.8508,1.8567,1.8592,1.8603,1.8613,1.8643,1.8655,1.8514,1.8515,1.8515,0,1.8508,1.8532,1.8493,1.8516,1.8517,1.8463,1.8496,1.8492,1.8483,1.8484,1.8457,1.8477,1.8466,1.8504,1.8526,1.8528,1.8535,1.8509,1.8604,1.8614,1.8622,1.8651,1.8663,1.8519,1.8519,1.8518,1.8518,0,1.8606,1.8623,1.8652,1.8643,1.8648,1.8676,1.8641,1.865,1.8623,1.8603,1.8632,1.8617,1.862,1.8627,1.8602,1.8662,1.8646,1.8612,1.8562,1.8641,1.8667,1.8678,1.8526,1.8524,1.8523,1.8522,0,0,1.8751,1.872,1.8731,1.8726,1.8708,1.872,1.8746,1.8747,1.8755,1.8751,1.877,1.8786,1.8754,1.8753,1.8726,1.8748,1.8818,1.871,1.8709,1.8729,1.8881,1.8905,1.8919,1.8795,1.8797,1.8799,1.8881,0,1.8839,1.888,1.8846,1.8893,1.8907,1.8855,1.8877,1.8868,1.885,1.8859,1.8839,1.885,1.8809,1.8807,1.8826,1.8806,1.8848,1.88,1.8811,1.8812,1.8813,1.8933,1.8958,1.9037,1.8891,1.8893,1.8894,0,1.8947,1.8947,1.8995,1.8972,1.8977,1.8997,1.8995,1.9005,1.8994,1.8979,1.8978,1.8944,1.8966,1.8919,1.8948,1.8916,1.8919,1.8909,1.8912,1.891,1.8857,1.8932,1.9061,1.9072,1.891,1.8909,1.8908,0,1.9045,1.9057,1.9086,1.9084,1.9059,1.9074,1.9064,1.905,1.9053,1.9052,1.9053,1.9054,1.9055,1.9056,1.9024,1.8993,1.9057,1.9007,1.9044,1.9045,1.9058,1.9057,1.9188,1.9064,1.9064,1.9064,1.9063,0,1.9146,1.9177,1.9129,1.9148,1.918,1.9141,1.9174,1.9159,1.9147,1.9161,1.9118,1.9131,1.9089,1.9098,1.9073,1.91,1.9101,1.9089,1.9081,1.9092,1.9093,1.9091,1.9084,1.9067,1.9066,1.9065,1.9065,0,1.926,1.923,1.9258,1.9232,1.9226,1.9251,1.9228,1.9244,1.9223,1.924,1.9242,1.921,1.9218,1.9186,1.919,1.9173,1.9212,1.9197,1.9216,1.921,1.9248,1.9244,1.938,1.9395,1.9264,1.9266,1.9267,0,1.9325,1.9347,1.9323,1.9329,1.9321,1.9332,1.9334,1.9296,1.93,1.9288,1.9304,1.9309,1.9311,1.9326,1.9303,1.9305,1.9288,1.9335,1.9288,1.9296,1.9286,1.9284,1.9285,1.9345,1.9346,1.9348,1.9349,0,1.9443,1.9427,1.9431,1.9431,1.9434,1.9432,1.9427,1.9434,1.9393,1.94,1.9407,1.9409,1.9412,1.9416,1.9413,1.9403,1.9369,1.9364,1.9372,1.9382,1.9391,1.9384,1.924,1.9361,1.936,1.9359,1.9358,1.9358,1.9533,1.9549,1.9534,1.9541,1.9533,1.9529,1.9541,1.9521,1.9527,1.9526,1.9503,1.9515,1.9502,1.9494,1.9487,1.9495,1.9473,1.9486,1.9488,1.9491,1.9497,1.9391,1.9495,1.9495,1.9494,1.9494,1.9494,0,1.9646,1.9634,1.964,1.9634,1.9639,1.9606,1.9599,1.9604,1.9615,1.9606,1.9608,1.9616,1.962,1.9597,1.9598,1.9609,1.9593,1.961,1.9608,1.9606,1.9518,1.951,1.9623,1.9623,1.9623,1.9623,1.9623,1.9623,1.9706,1.9732,1.9714,1.9734,1.9722,1.9732,1.9731,1.9726,1.9718,1.9729,1.9732,1.9717,1.9701,1.97,1.9703,1.9695,1.9697,1.9719,1.9707,1.9625,1.9612,1.96,1.9592,1.972,1.972,1.9793,1.9794,1.9794]},{"header":{"parameterUnit":"m.s-1","parameterCategory":1,"la1":30.2991,"la2":30.254,"lo1":-89.0895,"lo2":-89.0444,"dy":0.0017,"dx":0.0017,"nx":28,"ny":28,"refTime":"2025-07-18T03:00:00:Z","depth":0,"parameterNumber":3,"parameterNumberName":"V-component_of_WINDS"},"data":[0,0,0,0,0,0,0,0,0,0,0,0,0,0,0,0,0,0,0,0,0,0,0,0,0,0,0,0,0,0,0,0,0,0,0,0,0,0,0,0,0,0,0,0,0,0,0,0,0,0,0,0,0,0,0,0,0,0,6.315,6.3153,0,6.344,6.3444,6.3447,6.3473,6.347,6.3467,6.3464,6.3757,6.3767,6.3778,0,0,0,0,0,0,0,0,0,0,0,0,0,6.2611,6.262,6.3149,6.3153,6.3157,6.344,6.3444,6.3448,6.3473,6.3469,6.3466,6.3462,6.3754,6.3766,6.3779,0,0,0,0,0,0,0,0,0,0,0,0,0,6.2867,6.2623,6.3149,6.3204,6.3212,6.3439,6.3444,6.3449,6.3474,6.3469,6.3465,6.346,6.3749,6.3765,6.3781,6.3972,0,0,6.383,6.3837,0,0,0,0,0,0,0,0,6.2852,6.2887,6.3192,6.32,6.321,6.3416,6.3361,6.3624,6.3475,6.3374,6.3464,6.3458,6.3647,6.3671,6.3736,6.3986,6.3998,6.3831,6.3841,6.3848,6.3852,0,0,0,0,0,0,0,6.2835,6.2874,6.3264,6.3196,6.3207,6.3212,6.3243,6.3411,6.3533,6.3383,6.3385,6.342,6.3651,6.372,6.3743,6.4003,6.3831,6.3845,6.3855,6.3861,6.4421,6.4426,0,0,0,0,0,0,6.2807,6.2859,6.3255,6.3273,6.3016,6.3225,6.326,6.3354,6.3531,6.3554,6.3423,6.342,6.3695,6.3724,6.3753,6.3987,6.3848,6.3863,6.3872,6.4416,6.4422,6.4428,0,0,0,0,0,0,6.2796,6.2842,6.3243,6.3067,6.3119,6.324,6.3344,6.3362,6.3432,6.3562,6.3583,6.3472,6.3692,6.373,6.3917,6.3997,6.387,6.3884,6.4409,6.4418,6.4425,6.4457,0,0,0,0,0,0,6.278,6.2838,6.2914,6.3069,6.3128,6.3405,6.335,6.3371,6.346,6.3458,6.3613,6.3635,6.3692,6.3893,6.3933,6.4017,6.3897,6.4403,6.4413,6.4422,6.4449,6.4465,6.4478,0,0,0,0,0,6.2761,6.2911,6.2917,6.2965,6.3225,6.3409,6.3443,6.3507,6.3466,6.3542,6.3625,6.363,6.3982,6.3912,6.3957,6.4047,6.4398,6.441,6.4422,6.4443,6.4462,6.4478,0,0,0,0,0,0,6.2762,6.2932,6.2941,6.3147,6.3263,6.3413,6.3511,6.3526,6.3655,6.3648,6.372,6.3755,6.3938,6.4012,6.393,6.424,6.4185,6.4207,6.4186,6.4205,6.4219,6.4198,6.391,0,0,0,0,0,6.2786,6.2922,6.3064,6.3231,6.3289,6.339,6.3472,6.3511,6.3635,6.3684,6.3781,6.3898,6.4035,6.4124,6.4258,6.4459,6.4492,6.4544,6.4558,6.4569,6.4587,6.4696,6.472,6.4467,6.4466,6.4466,0,0,6.2837,6.2947,6.3029,6.3234,6.3329,6.3466,6.3431,6.3579,6.3682,6.3706,6.3888,6.3963,6.4099,6.4293,6.4383,6.4359,6.4664,6.4584,6.4593,6.4604,6.4711,6.4735,6.4756,6.4475,6.4473,6.4472,0,0,6.3,6.3098,6.3248,6.3343,6.3487,6.3553,6.3588,6.3736,6.3787,6.3971,6.3991,6.4113,6.4348,6.4444,6.4523,6.4719,6.4727,6.476,6.4836,6.4942,6.4962,6.498,6.5048,6.5072,6.4777,6.4777,6.4778,0,6.3045,6.3256,6.3322,6.3469,6.3557,6.3586,6.3736,6.3825,6.4005,6.4064,6.4035,6.4329,6.4423,6.4639,6.4686,6.475,6.4791,6.4743,6.4954,6.4973,6.499,6.5056,6.5082,6.478,6.478,6.478,6.4779,0,6.3303,6.3448,6.3551,6.3724,6.3824,6.3972,6.4058,6.415,6.418,6.4247,6.4432,6.4546,6.4701,6.4755,6.4786,6.4975,6.4955,6.4939,6.4886,6.5016,6.5079,6.5105,6.4785,6.4784,6.4783,6.4782,0,0,6.3477,6.3683,6.372,6.3798,6.3958,6.407,6.4217,6.4371,6.4447,6.457,6.4694,6.4891,6.4876,6.4966,6.5007,6.51,6.5245,6.5072,6.5076,6.5099,6.5458,6.5468,6.5496,6.5251,6.5256,6.5261,6.5446,0,6.3657,6.3923,6.3985,6.4211,6.4344,6.4372,6.45,6.461,6.4677,6.4798,6.4871,6.5009,6.498,6.5034,6.5127,6.5208,6.5318,6.5195,6.5365,6.5371,6.533,6.553,6.5542,6.5711,6.5471,6.5475,6.5478,0,6.3904,6.4032,6.4272,6.4412,6.447,6.4584,6.4728,6.4844,6.4969,6.501,6.5109,6.514,6.5292,6.523,6.5439,6.5354,6.5427,6.5477,6.5485,6.5503,6.5432,6.5551,6.5767,6.5792,6.5518,6.5515,6.5512,0,6.4004,6.4237,6.441,6.4475,6.4644,6.4723,6.4796,6.4916,6.5003,6.5128,6.5185,6.5325,6.5402,6.5509,6.5576,6.5525,6.5778,6.5723,6.5815,6.5814,6.5867,6.5863,6.6096,6.5916,6.5915,6.5915,6.5914,0,6.4199,6.4344,6.4457,6.4563,6.4725,6.4794,6.4952,6.5025,6.5132,6.5251,6.5283,6.5393,6.5475,6.5597,6.565,6.5813,6.5847,6.5884,6.5896,6.5881,6.5876,6.5929,6.5919,6.5921,6.592,6.5919,6.5917,0,6.4339,6.4421,6.4611,6.4754,6.4793,6.4906,6.5027,6.513,6.5196,6.5346,6.5385,6.5489,6.5633,6.571,6.5891,6.5926,6.6109,6.6115,6.6067,6.6072,6.6159,6.615,6.6435,6.6475,6.6268,6.627,6.6271,0,6.4458,6.457,6.4725,6.4807,6.4882,6.5015,6.5104,6.5175,6.5265,6.5414,6.5498,6.5644,6.5765,6.5993,6.6084,6.6221,6.623,6.632,6.6251,6.6231,6.623,6.6222,6.6232,6.6332,6.6334,6.6336,6.6337,0,6.4659,6.4693,6.4821,6.4962,6.5067,6.5182,6.5295,6.536,6.5449,6.5548,6.5697,6.579,6.5974,6.6118,6.6261,6.6334,6.635,6.6358,6.6386,6.6372,6.6339,6.6356,6.6099,6.6351,6.635,6.6349,6.6348,6.6347,6.4792,6.4892,6.5016,6.5156,6.5248,6.5352,6.5455,6.5534,6.5659,6.5815,6.5848,6.6004,6.6123,6.6318,6.6395,6.6516,6.6498,6.6539,6.655,6.6559,6.6562,6.632,6.6543,6.6542,6.6542,6.6542,6.6542,0,6.4993,6.5074,6.5202,6.5359,6.5468,6.5474,6.5599,6.5689,6.5826,6.5936,6.6054,6.6223,6.6362,6.6462,6.6603,6.668,6.6691,6.6715,6.671,6.6726,6.6571,6.6531,6.6704,6.6704,6.6704,6.6704,6.6704,6.6704,6.5111,6.528,6.5328,6.5542,6.5621,6.5775,6.5845,6.594,6.6028,6.6215,6.6331,6.6396,6.6501,6.665,6.6776,6.6802,6.6852,6.6875,6.6901,6.6754,6.6737,6.672,6.6684,6.6886,6.6886,6.7046,6.7047,6.7049]}]]